Flag for Germany Weather past 2 weeks in Schleswig, Schleswig-Holstein, Germany

Now
80 °F

Overcast.


Feels Like: 80 °F
Forecast: 64 / 80 °F
Wind: 6 mph from East

Location: Schleswig

Current Time: Jul 24, 2014 at 6:18:40 PM

Latest Report: Jul 24, 2014 at 4:00 PM


Visibility: 22 mi

Pressure: 30.09 "Hg

Humidity: 40%

Dew point: 53 °F

Location of SchleswigLocation

Historic Weather in Schleswig — Graph

°F

Schleswig temperature yesterday

Maximum temperature yesterday: 80 °F (at 3:00 PM)
Minimum temperature yesterday: 61 °F (at 3:00 AM)
Average temperature yesterday: 71 °F

Past Weeks' High & Low Weather Summary

 TemperatureHumidityPressure
High83 °F (Jul 19, 2:00 PM)98% (Jul 14, 4:00 AM)30.23 "Hg (Jul 14, 4:00 AM)
Low51 °F (Jul 17, 5:00 AM)30% (Jul 22, 2:00 PM)29.60 "Hg (Jul 14, 3:00 AM)
Average68 °F69%29.99 "Hg
* Reported Jul 9 4:00 PM — Jul 24 4:00 PM, Schleswig, Weather by CustomWeather, © 2014

Note: Actual official high and low records may vary slightly from our data, if they occured in-between our weather recording intervals... More about our weather records

Advertising

Schleswig weather history for previous 24 hours

 ConditionsComfort  
Time TempWeatherWind HumidityBarometerVisibility
4:00 PM
Jul 24
80 °FOvercast.6 mph40%30.09 "Hg22 mi
3:00 PM80 °FPartly sunny.6 mph37%30.10 "Hg16 mi
2:00 PM79 °FScattered clouds.5 mph39%30.11 "Hg19 mi
1:00 PM79 °FScattered clouds.7 mph36%30.11 "Hg22 mi
12:00 PM78 °FScattered clouds.6 mph38%30.11 "Hg16 mi
10:00 AM74 °FScattered clouds.5 mph56%30.12 "Hg19 mi
9:00 AM72 °FScattered clouds.5 mph67%30.12 "Hg16 mi
8:00 AM69 °FPassing clouds.3 mph77%30.12 "Hg16 mi
7:00 AM64 °FPassing clouds.3 mph84%30.13 "Hg16 mi
6:00 AM62 °FPassing clouds.2 mph88%30.13 "Hg12 mi
5:00 AM62 °FPassing clouds.3 mph88%30.13 "Hg12 mi
4:00 AM61 °FPassing clouds.2 mph90%30.14 "Hg12 mi
3:00 AM62 °FPassing clouds.3 mph86%30.15 "Hg16 mi
2:00 AM63 °FPassing clouds.3 mph83%30.16 "Hg19 mi
1:00 AM64 °FPassing clouds.2 mph78%30.16 "Hg22 mi
12:00 AM63 °FPassing clouds.3 mph76%30.16 "Hg22 mi
10:00 PM
Jul 23
70 °FPassing clouds.3 mph56%30.16 "Hg22 mi
9:00 PM73 °FPassing clouds.3 mph46%30.16 "Hg22 mi
8:00 PM75 °FPassing clouds.5 mph46%30.16 "Hg22 mi
7:00 PM76 °FPassing clouds.6 mph45%30.16 "Hg22 mi
6:00 PM79 °FPassing clouds.6 mph42%30.16 "Hg22 mi
Weather by CustomWeather, © 2014

See weather overviewHow to use our weather pages